Regional Weather Roundup
Issued by NWS Sterling, VA

Current Version | Previous Version | Text Only | Print | Product List | Glossary On
Versions: 1 2 3 4 5 6 7 8 9 10 11 12 13 14 15 16 17 18 19 20 21 22 23 24 25 26 27 28
000
ASUS41 KLWX 010810
RWRLWX

REGIONAL WEATHER ROUNDUP
NATIONAL WEATHER SERVICE BALTIMORE MD/WASHINGTON DC
400 AM EDT WED JUN 01 2016

Note: "FAIR" indicates few or no clouds below 12,000 feet
with no significant weather and/or obstructions to visibility.
 TC=TEMPERATURE CELSIUS

 * =Non NWS site. Station does not report precipitation (e.g. rain,
    snow, etc.), thunder, or fog.

DCZ001-MDZ009-015-VAZ040>042-051-053>054-010900-
WASHINGTON METRO

CITY           SKY/WX    TMP DP  RH WIND       PRES   REMARKS
WASHINGTON NAT MOCLDY    71  68  90 W3        30.01R
DULLES         FAIR      65  63  93 CALM      30.01R
ANDREWS AFB    CLEAR     67  66  96 W1        30.00R
FT BELVOIR     FAIR      63  63 100 CALM      30.01R
QUANTICO       FAIR      68  66  93 NW5       30.02R
COLLEGE PARK*  FAIR      63  63 100 CALM      30.00R
LEESBURG*      FAIR      66  64  94 CALM      30.02S
MANASSAS*      FAIR      64  64 100 CALM      30.01S

$$

MDZ006>007-011-014-010900-
BALTIMORE METRO

CITY           SKY/WX    TMP DP  RH WIND       PRES   REMARKS
BWI AIRPORT    CLEAR     64  62  93 CALM      30.00R
MD SCIENCE CTR   N/A     72  62  71 MISG      30.00S
MARTIN STATE   CLEAR     64  64 100 CALM      30.01R
ANNAPOLIS      CLEAR     68  67  96 CALM      29.99S
FORT MEADE*    CLEAR     61  59  94 CALM      30.03R

$$

MDZ012-015-019>023-010900-
MARYLAND EASTERN SHORE

CITY           SKY/WX    TMP DP  RH WIND       PRES   REMARKS
OCEAN CITY     CLEAR     64  63  96 CALM      30.00R
SALISBURY      PTCLDY    65  64  97 CALM      30.00S
BAY BRIDGE AP* CLEAR     68  68 100 CALM      30.00R
CAMBRIDGE*       N/A     64  63  94 CALM      29.99S
EASTON*        CLEAR     68  68 100 CALM      30.03S

$$

MDZ017>025-010900-
SOUTHERN MARYLAND

CITY           SKY/WX    TMP DP  RH WIND       PRES   REMARKS
PATUXENT RIVER CLEAR     67  65  93 CALM      30.00R
ST INIGOES     PTCLDY    67  66  97 CALM      30.00R
LEONARDTOWN*   PTCLDY    64  63  94 CALM      30.02R

$$

MDZ003>005-010900-
NORTH CENTRAL MARYLAND

CITY           SKY/WX    TMP DP  RH WIND       PRES   REMARKS
FREDERICK*     CLEAR     61  61 100 CALM      30.04R
HAGERSTOWN APT CLOUDY    67  56  67 E8        30.02R
WESTMINSTER*   CLEAR     66  63  88 CALM      30.03R

$$

MDZ501>502-010900-
WESTERN MARYLAND

CITY           SKY/WX    TMP DP  RH WIND       PRES   REMARKS
OAKLAND*       CLOUDY    61  52  72 S6        30.11R
CUMBERLAND*    CLOUDY    63  63 100 CALM      30.07S

$$

VAZ025>031-010900-
SHENANDOAH VALLEY

CITY           SKY/WX    TMP DP  RH WIND       PRES   REMARKS
WINCHESTER*    FAIR      61  55  82 CALM      30.02S
FRONT ROYAL*   FAIR      63  59  88 S5        30.02S
LURAY*         FAIR      59  59 100 CALM      30.03F
NEW MARKET*    FAIR      59  58  99 CALM      30.02F
STAUNTON*      FAIR      58  57  97 CALM      30.06F FOG
WAYNESBORO*    FAIR      61  60  96 CALM      30.05F

$$

WVZ021-048>050-054>055-010900-
EASTERN WEST VIRGINIA PANHANDLE

CITY           SKY/WX    TMP DP  RH WIND       PRES   REMARKS
MARTINSBURG    FAIR      59  58  96 CALM      30.01R
PETERSBURG*    FAIR      59  58  98 CALM      30.05S FOG

$$

VAZ036>039-050-010900-
CENTRAL FOOTHILLS

CITY           SKY/WX    TMP DP  RH WIND       PRES   REMARKS
CHARLOTTESVILL FAIR      64  61  90 CALM      30.02S
CULPEPER*      FAIR      64  63  99 CALM      30.03R
ORANGE*        FOG       64  64 100 CALM      30.03S VSB 3/4
GORDONSVILLE*  FAIR      64  64 100 CALM      30.01S
WARRENTON*     FAIR      63  58  86 CALM      30.01R FOG

$$

VAZ055>057-010900-
NORTH AND CENTRAL PIEDMONT

CITY           SKY/WX    TMP DP  RH WIND       PRES   REMARKS
FREDERICKSBRG* FAIR      65  65 100 CALM      30.01R
STAFFORD*      FAIR      61  60  97 CALM      30.05R FOG

$$

NCZ024-NYZ072-PAZ021-071-VAZ022-071-010900-
OTHER REGIONAL OBSERVATIONS

CITY           SKY/WX    TMP DP  RH WIND       PRES   REMARKS
NEW YORK CITY  CLEAR     71  53  52 E5        30.04R
PHILADELPHIA   PTCLDY    69  66  90 CALM      30.00S
PITTSBURGH     PTCLDY    66  52  60 N3        30.02R
ROANOKE        FAIR      67  64  90 CALM      30.06S
RICHMOND       FAIR      66  64  93 CALM      30.00R
RALEIGH        CLOUDY    68  67  96 CALM      29.99S

$$

ANZ530>537-010900-
MARINE OBSERVATIONS

STATION/POSITION TIME  TEMP    WIND        PRES
                       AIR SEA DIR/SP/G
                 (UTC) (F)     (DEG/KT/KT) (MB)
THOMAS PT LIGHT  0800   71 71  230/  3/  3 1017.1R
BALT KEY BRIDGE  0700   71     180/  2/  2 1015.4R
COVE POINT       0700   70      CALM  /  2 1016.1R
LEWISETTA        0700   70 75  210/  2/  3 1015.1R
SOLOMONS ISLAND  0700   70 68  340/  2/  2   N/A
PINEY POINT      0700           CALM  /  1   N/A

$$





USA.gov is the U.S. government's official web portal to all federal, state and local government web resources and services.